Location: Hermaringen
(48.5952°N, 10.2585°E)
Time: 09:06:42
(UTC+00:00)

Altair - All Passes

Search period start: 16 February 2026 00:00
Search period end: 26 February 2026 00:00
Orbit: 1502 x 1682 km, 47.2° (Epoch: 14 February)

Date Brightness Start Highest point End Pass type
(mag) Time Alt. Az. Time Alt. Az. Time Alt. Az.
16 Feb - 01:54:43 10° SE 01:57:25 12° ESE 02:00:09 10° ESE visible
16 Feb - 03:51:35 10° SSW 03:59:55 41° SE 04:08:29 10° ENE visible
16 Feb - 05:54:33 10° WSW 06:03:48 76° SSE 06:13:25 10° E visible
16 Feb - 07:59:01 10° W 08:08:28 81° S 08:18:18 10° ESE daylight
16 Feb - 10:03:37 10° WNW 10:12:45 51° SSW 10:22:11 10° SE daylight
16 Feb - 12:09:39 10° W 12:15:50 19° SW 12:22:08 10° SSW daylight
17 Feb - 03:26:37 10° SSW 03:34:48 38° SE 03:43:11 10° ENE visible
17 Feb - 05:29:22 10° WSW 05:38:35 74° SSE 05:48:09 10° E visible
17 Feb - 07:33:49 10° W 07:43:13 82° S 07:53:01 10° ESE daylight
17 Feb - 09:38:24 10° WNW 09:47:34 54° SSW 09:57:03 10° SE daylight
17 Feb - 11:44:09 10° W 11:50:45 21° SW 11:57:29 10° S daylight
18 Feb - 03:01:40 10° SSW 03:09:41 35° SE 03:17:52 10° ENE visible
18 Feb - 05:04:12 10° WSW 05:13:23 72° SSE 05:22:53 10° E visible
18 Feb - 07:08:36 10° W 07:17:59 83° S 07:27:45 10° E daylight
18 Feb - 09:13:11 10° WNW 09:22:22 56° SSW 09:31:54 10° SE daylight
18 Feb - 11:18:42 10° W 11:25:39 23° SW 11:32:45 10° S daylight
19 Feb - 02:36:45 10° SSW 02:44:35 33° SE 02:52:33 10° E visible
19 Feb - 04:39:03 10° WSW 04:48:11 69° SSE 04:57:36 10° E visible
19 Feb - 06:43:23 10° W 06:52:45 83° S 07:02:28 10° E daylight
19 Feb - 08:47:57 10° WNW 08:57:10 59° SSW 09:06:44 10° SE daylight
19 Feb - 10:53:18 10° W 11:00:33 25° SW 11:07:59 10° S daylight
20 Feb - 02:11:53 10° SSW 02:19:29 31° SE 02:27:13 10° E visible
20 Feb - 04:13:54 10° WSW 04:22:59 67° SSE 04:32:21 10° ENE visible
20 Feb - 06:18:10 10° W 06:27:30 84° S 06:37:11 10° E daylight
20 Feb - 08:22:44 10° WNW 08:31:58 61° SSW 08:41:33 10° SE daylight
20 Feb - 10:27:56 10° W 10:35:26 27° SW 10:43:09 10° S daylight
21 Feb - 01:47:02 10° S 01:54:24 28° SE 02:01:51 10° E visible
21 Feb - 03:48:46 10° SW 03:57:48 64° SSE 04:07:05 10° ENE visible
21 Feb - 05:52:57 10° W 06:02:16 84° S 06:11:55 10° E daylight
21 Feb - 07:57:32 10° WNW 08:06:46 64° SSW 08:16:22 10° SE daylight
21 Feb - 10:02:35 10° W 10:10:19 29° SW 10:18:17 10° S daylight
22 Feb - 01:22:13 10° S 01:29:19 26° SE 01:36:29 10° E visible
22 Feb - 03:23:39 10° SW 03:32:37 62° SSE 03:41:49 10° ENE visible
22 Feb - 05:27:45 10° W 05:37:02 84° S 05:46:38 10° E visible
22 Feb - 07:32:19 10° WNW 07:41:34 66° SSW 07:51:11 10° ESE daylight
22 Feb - 09:37:16 10° W 09:45:12 31° SW 09:53:22 10° SSE daylight
23 Feb - 00:57:26 10° S 01:04:14 24° SE 01:11:05 10° E visible
23 Feb - 02:58:32 10° SW 03:07:26 59° SSE 03:16:34 10° ENE visible
23 Feb - 05:02:32 10° W 05:11:48 83° S 05:21:22 10° E visible
23 Feb - 07:07:06 10° W 07:16:22 69° SSW 07:25:58 10° ESE daylight
23 Feb - 09:11:58 10° W 09:20:04 33° SW 09:28:26 10° SSE daylight
24 Feb - 00:32:43 10° S 00:39:10 22° SE 00:45:39 10° E visible
24 Feb - 02:33:26 10° SW 02:42:17 56° SSE 02:51:19 10° ENE visible
24 Feb - 04:37:20 10° W 04:46:34 83° S 04:56:06 10° E visible
24 Feb - 06:41:54 10° W 06:51:09 71° SSW 07:00:44 10° ESE daylight
24 Feb - 08:46:41 10° WNW 08:54:56 36° SW 09:03:28 10° SSE daylight
25 Feb - 00:08:04 10° S 00:14:07 20° SE 00:20:10 10° E visible
25 Feb - 02:08:20 10° SW 02:17:07 53° SSE 02:26:04 10° ENE visible
25 Feb - 04:12:07 10° WSW 04:21:20 82° S 04:30:50 10° E visible
25 Feb - 06:16:41 10° W 06:25:56 73° SSW 06:35:31 10° ESE daylight
25 Feb - 08:21:25 10° WNW 08:29:48 38° SW 08:38:28 10° SSE daylight
25 Feb - 10:31:01 10° WSW 10:32:23 10° WSW 10:33:45 10° SW daylight
25 Feb - 23:43:28 10° SSE 23:49:03 18° SE 23:54:38 10° E visible
